Regional Weather Roundup
Issued by NWS San Angelo, TX

Home | Current Version | Previous Version | Text Only | Print | Product List | Glossary On
Versions: 1 2 3 4 5 6 7 8 9 10 11 12 13 14 15 16 17 18 19 20 21 22 23 24 25 26 27 28 29 30 31 32 33 34 35 36 37 38 39 40 41 42 43 44 45 46 47 48 49 50
000
ASUS44 KSJT 261802
RWRSJT
WEST CENTRAL TEXAS REGIONAL WEATHER ROUNDUP
NATIONAL WEATHER SERVICE SAN ANGELO TX
1200 PM CST FRI DEC 26 2014

NOTE: "FAIR" INDICATES FEW OR NO CLOUDS BELOW 12,000 FEET WITH NO
SIGNIFICANT WEATHER AND/OR OBSTRUCTIONS TO VISIBILITY.

TXZ049-054-064>066-071>073-076>078-098-099-113-114-127-128-139-140-
154-155-168>170-261900
...LOCATIONS ACROSS WEST CENTRAL TEXAS...

CITY           SKY/WX    TMP DP  RH WIND       PRES   REMARKS
SAN ANGELO     FAIR      61  45  55 S17       29.88F
ABILENE        FAIR      61  46  57 S17G28    29.87F
DYESS AFB      FAIR      62  46  53 SW22      29.85S
JUNCTION       FAIR      62  49  62 S9        29.91F
SWEETWATER     NOT AVBL
BROWNWOOD      NOT AVBL
COLEMAN        NOT AVBL
SONORA         NOT AVBL
OZONA          NOT AVBL
BRADY          NOT AVBL
$$

TEXAS PANHANDLE/OKLAHOMA PANHANDLE

CITY           SKY/WX    TMP DP  RH WIND       PRES   REMARKS
AMARILLO       CLOUDY    32  25  75 N15       29.90F WCI  22
BORGER         CLOUDY    32  25  75 N14       29.93F WCI  22
CANADIAN       CLOUDY    36  30  78 N10       29.95S WCI  28
DALHART        LGT SNOW  29  23  78 NE16      29.91F WCI  17
DUMAS          CLOUDY    29  26  87 NE14      29.91F WCI  18
GUYMON         NOT AVBL
HEREFORD       CLOUDY    33  28  80 NE12      29.90F WCI  24
PAMPA          NOT AVBL
PERRYTON       NOT AVBL
$$

SOUTHERN PANHANDLE/SOUTH PLAINS/ROLLING PLAINS

CITY           SKY/WX    TMP DP  RH WIND       PRES   REMARKS
LUBBOCK        FAIR      52  29  41 NW13      29.85F
SNYDER         NOT AVBL
CHILDRESS      FAIR      49  28  44 N12       29.90R
SEMINOLE       NOT AVBL
$$

PERMIAN BASIN

CITY           SKY/WX    TMP DP  RH WIND       PRES   REMARKS
MIDLAND        FAIR      64  31  28 SW14      29.85F
ODESSA         FAIR      62  30  29 SW10      29.87S
WINK           FAIR      60  26  27 W12       29.85F
$$

FAR WEST/SOUTHWEST MOUNTAINS/TRANS PECOS

CITY           SKY/WX    TMP DP  RH WIND       PRES   REMARKS
ALPINE         NOT AVBL
DRYDEN           N/A     51  42  71 NE6       29.90F
EL PASO        FLURRIES  37  35  92 S7        29.97S WCI  32
FORT STOCKTON  FAIR      71  23  16 SW21G32   29.84F
GUADALUPE PASS NOT AVBL
MARFA          FAIR      63  23  22 S26       29.93F
PECOS          NOT AVBL
$$

DALLAS/FORT WORTH METROPLEX

CITY           SKY/WX    TMP DP  RH WIND       PRES   REMARKS
DFW AIRPORT    LGT RAIN  57  55  93 SE9       29.93F FOG
FTW MEACHAM    CLOUDY    62  55  77 S15       29.91F
DAL-EXECUTIVE  LGT RAIN  60  56  86 S9        29.93F FOG
GRAND PRAIRIE  NOT AVBL
ADDISON        NOT AVBL
MESQUITE       CLOUDY    61  55  82 SE12      29.96F
LANCASTER      CLOUDY    61  55  80 SE10      29.95F
$$

NORTH CENTRAL TEXAS

CITY           SKY/WX    TMP DP  RH WIND       PRES   REMARKS
SHRMAN/DENISON CLOUDY    56  55  95 SE8       29.97F
GAINESVILLE    NOT AVBL
BRIDGEPORT     CLOUDY    62  55  77 S9        29.92F
DENTON         CLOUDY    58  52  80 SE10      29.92F
WAXAHACHIE     DRIZZLE   58  58  99 SE7       29.95F
GRANBURY       NOT AVBL
$$

WESTERN NORTH TEXAS

CITY           SKY/WX    TMP DP  RH WIND       PRES   REMARKS
WICHITA FALLS  CLOUDY    58  47  66 S8        29.89F
VERNON         FAIR      60  37  42 SW12      29.88F
BRECKENRIDGE   NOT AVBL
COMANCHE       NOT AVBL
$$

CENTRAL AND SOUTH CENTRAL TEXAS

CITY           SKY/WX    TMP DP  RH WIND       PRES   REMARKS
AUSTIN/BERGSTM CLOUDY    65  61  87 S14       29.94F
WACO           CLOUDY    62  58  86 S13       29.95F
HILLSBORO      NOT AVBL
TEMPLE         CLOUDY    63  55  77 S18       29.93F
KILLEEN-GRAY   NOT AVBL
FORT HOOD      CLOUDY    65  58  79 S21G26    29.91F
GEORGETOWN     CLOUDY    63  59  88 S12G20    29.93F
LAGO VISTA     DRIZZLE   63  59  88 S12G21    29.96F
SAN MARCOS     CLOUDY    64  61  88 S14       29.95F
NEW BRAUNFELS  CLOUDY    67  61  81 S9        29.94F
RANDOLPH AFB   CLOUDY    65  60  85 S13       29.94F
SAN ANTONIO    CLOUDY    65  60  84 S10       29.94F
STINSON        CLOUDY    67  59  75 S8        29.92F
PLEASANTON     NOT AVBL
LA GRANGE      NOT AVBL
GIDDINGS       CLOUDY    66  62  86 S7G16     29.99F
$$

EAST TEXAS

CITY           SKY/WX    TMP DP  RH WIND       PRES   REMARKS
PARIS          CLOUDY    54  48  82 SE14      30.02F
CLARKSVILLE    NOT AVBL
TYLER          CLOUDY    59  55  87 SE8       29.99F
LONGVIEW       CLOUDY    60  51  72 SE12      30.02F
PALESTINE      CLOUDY    64  58  81 SE9       29.99F
NACOGDOCHES      N/A    N/A N/A N/A MISG        N/A
$$

TEXAS HILL COUNTRY AND EDWARDS PLATEAU

CITY           SKY/WX    TMP DP  RH WIND       PRES   REMARKS
LLANO          NOT AVBL
HORSESHOE BAY  CLOUDY    67  55  64 S14G21    29.93F
KERRVILLE      CLOUDY    61  55  80 S14       29.94F
FREDERICKSBRG  NOT AVBL
ROCKSPRINGS    NOT AVBL
HONDO          CLOUDY    62  55  77 S5        29.96F
UVALDE         FAIR      59  52  77 SE6       29.93F
DEL RIO        FAIR      60  49  66 E9        29.90F
$$

SOUTHEAST TEXAS

CITY           SKY/WX    TMP DP  RH WIND       PRES   REMARKS
COLLEGE STN    CLOUDY    64  61  90 S15       29.97F
CALDWELL       NOT AVBL
CROCKETT       NOT AVBL
BRENHAM        CLOUDY    66  64  95 S9        29.98F
HUNTSVILLE     CLOUDY    67  59  75 S10G17    29.99F
CONROE         CLOUDY    68  59  73 SE16      30.00F
HOUSTON BUSH   LGT RAIN  69  61  75 S9G20     30.00F
HOUSTON HOBBY  CLOUDY    71  62  73 S15G24    30.00F
PERLAND        CLOUDY    72  62  71 S12       30.02F
WHARTON        NOT AVBL
$$

THE UPPER TEXAS COAST

CITY           SKY/WX    TMP DP  RH WIND       PRES   REMARKS
ORANGE         CLOUDY    62  57  86 E10       30.08F
PORT ARTHUR    CLOUDY    66  59  78 E13       30.05F
GALVESTON      CLOUDY    68  64  87 SE14      30.02F
ANGLETON       CLOUDY    68  65  90 S15       30.00F
BAY CITY         N/A     67  67  97 S7        29.99F
$$

TEXAS COASTAL BEND, RIO GRANDE PLAINS DEEP SOUTH TEXAS

CITY           SKY/WX    TMP DP  RH WIND       PRES   REMARKS
VICTORIA       CLOUDY    73  66  78 S17G26    29.96F
BEEVILLE       MOCLDY    71  65  80 S20       29.93F
ROCKPORT       LGT RAIN  70  65  84 S9        29.96F
PORT ARANSAS   NOT AVBL
PORT LAVACA    NOT AVBL
CORPUS CHRISTI CLOUDY    74  63  68 S23G30    29.94F
KINGSVILLE NAS PTSUNNY   75  64  68 S25G33    29.92F
COTULLA        FAIR     N/A N/A N/A S10       29.93F
LAREDO         SUNNY     70  54  56 S6        29.94F
BROWNSVILLE    CLOUDY    75  64  68 S26G33    29.94F
PORT ISABEL    CLOUDY    74  65  73 S20G35    29.93F
HEBBRONVILLE   NOT AVBL
MCALLEN        FAIR      76  59  55 S14G25    29.92F
WESLACO        NOT AVBL
FALFURRIAS     FAIR      76  60  56 S18G26    29.91F
EDINBURG       FAIR      78  60  53 S17G25    29.93F
$$


USA.gov is the U.S. government's official web portal to all federal, state and local government web resources and services.